Weather History for West Plains, MO

Change the Weather History Date:

Sunday, April 28, 2013

  Actual Average Record
Temperature  
Mean Temperature 57 °F 61 °F  
Max Temperature 65 °F 73 °F 88 °F (1970)
Min Temperature 49 °F 49 °F 27 °F (1992)
Degree Days  
Heating Degree Days 8 5  
Month to date heating degree days 313 242  
Since 1 July heating degree days 4359 4252  
Cooling Degree Days 0 1  
Month to date cooling degree days 15 23  
Year to date cooling degree days 15 27  
Growing Degree Days 7 (Base 50)    
Moisture  
Dew Point 49 °F    
Average Humidity 76    
Maximum Humidity 96    
Minimum Humidity 56    
Precipitation  
Precipitation 0.00 in 0.15 in 1.26 in (1991)
Month to date precipitation 5.21 4.15  
Year to date precipitation 16.28 14.00  
Sea Level Pressure  
Sea Level Pressure 29.97 in    
Wind  
Wind Speed 5 mph (WNW)    
Max Wind Speed 15 mph    
Max Gust Speed 18 mph    
Visibility 10 miles    
Events Rain    
T = Trace of Precipitation, MM = Missing Value Source: NWS Daily Summary

Daily Weather History Graph

Daily Weather History Graph

Search for Another Location

Airport:

Trip Planner

Search our weather history database for the weather conditions in past years. The results will help you decide how hot, cold, wet, or windy it might be!

Date:

Astronomy

Apr. 28, 2013 Rise Set
Actual Time 6:16 AM CDT 7:54 PM CDT
Civil Twilight 5:49 AM CDT 8:21 PM CDT
Nautical Twilight 5:15 AM CDT 8:55 PM CDT
Astronomical Twilight 4:40 AM CDT 9:30 PM CDT
Moon 11:22 PM CDT (4/28) 8:36 AM CDT (4/28)
Length of Visible Light 14h 32m
Length of Day
13h 37m
Waning Gibbous, 88% of the Moon is Illuminated
Apr 28
Waning Gibbous
May 2
Last Quarter
May 9
New
May 17
First Quarter
May 24
Full

Hourly Weather History & Observations

Time (CDT) Temp. Dew Point Humidity Pressure Visibility Wind Dir Wind Speed Gust Speed Precip Events Conditions
12:03 AM 51.8 °F 51.8 °F 100% 29.98 in 2.5 mi WNW 3.5 mph - N/A   Overcast
12:10 AM 51.8 °F 51.8 °F 100% 29.98 in 2.5 mi NW 6.9 mph - 0.01 in Rain Light Rain
12:20 AM 51.8 °F 51.8 °F 100% 29.98 in 6.0 mi NW 4.6 mph - 0.01 in Rain Light Rain
12:39 AM 51.8 °F 50.0 °F 94% 29.98 in 10.0 mi NW 5.8 mph - 0.01 in   Overcast
12:53 AM 52.0 °F 50.0 °F 93% 29.98 in 10.0 mi NW 4.6 mph - 0.01 in   Overcast
1:09 AM 51.8 °F 50.0 °F 94% 29.98 in 10.0 mi WNW 3.5 mph - N/A   Overcast
1:18 AM 51.8 °F 50.0 °F 94% 29.98 in 10.0 mi WNW 4.6 mph - N/A   Overcast
1:53 AM 51.1 °F 48.9 °F 92% 29.96 in 10.0 mi WNW 3.5 mph - N/A   Overcast
2:05 AM 51.8 °F 48.2 °F 88% 29.97 in 10.0 mi WNW 4.6 mph - N/A   Overcast
2:12 AM 51.8 °F 48.2 °F 88% 29.96 in 10.0 mi WNW 6.9 mph - N/A   Overcast
2:23 AM 51.8 °F 48.2 °F 88% 29.96 in 10.0 mi WNW 5.8 mph - N/A   Overcast
2:53 AM 51.1 °F 48.9 °F 92% 29.96 in 10.0 mi WNW 5.8 mph - N/A   Overcast
3:53 AM 50.0 °F 48.9 °F 96% 29.96 in 10.0 mi West 5.8 mph - N/A   Overcast
4:31 AM 50.0 °F 48.2 °F 94% 29.96 in 10.0 mi WNW 6.9 mph - N/A   Overcast
4:41 AM 50.0 °F 48.2 °F 94% 29.96 in 10.0 mi WNW 5.8 mph - N/A   Overcast
4:51 AM 50.0 °F 48.2 °F 94% 29.96 in 10.0 mi West 6.9 mph - N/A   Overcast
4:53 AM 50.0 °F 48.0 °F 93% 29.95 in 10.0 mi WNW 6.9 mph - N/A   Overcast
5:53 AM 50.0 °F 48.0 °F 93% 29.96 in 10.0 mi WNW 6.9 mph - N/A   Overcast
6:03 AM 50.0 °F 48.2 °F 94% 29.97 in 10.0 mi WNW 5.8 mph - N/A   Overcast
6:53 AM 50.0 °F 48.0 °F 93% 29.98 in 10.0 mi NW 9.2 mph - N/A   Overcast
7:37 AM 50.0 °F 46.4 °F 87% 30.01 in 8.0 mi Calm Calm - N/A   Overcast
8:21 AM 50.0 °F 48.2 °F 94% 30.01 in 10.0 mi West 8.1 mph - N/A   Overcast
8:53 AM 53.1 °F 48.9 °F 86% 30.00 in 10.0 mi NW 11.5 mph - N/A   Mostly Cloudy
9:22 AM 53.6 °F 46.4 °F 77% 30.01 in 10.0 mi NW 12.7 mph - N/A   Overcast
9:53 AM 53.1 °F 46.9 °F 80% 30.01 in 10.0 mi WNW 9.2 mph - N/A   Overcast
10:34 AM 53.6 °F 48.2 °F 82% 30.02 in 10.0 mi NW 6.9 mph - N/A   Overcast
10:53 AM 53.1 °F 46.9 °F 80% 30.02 in 10.0 mi NW 10.4 mph - N/A   Overcast
11:24 AM 53.6 °F 46.4 °F 77% 30.02 in 10.0 mi NW 8.1 mph - N/A   Overcast
11:53 AM 53.1 °F 46.9 °F 80% 30.02 in 10.0 mi NNW 8.1 mph - N/A   Overcast
12:53 PM 55.0 °F 48.0 °F 77% 29.99 in 10.0 mi NNW 6.9 mph - N/A   Overcast
1:51 PM 57.2 °F 48.2 °F 72% 29.99 in 10.0 mi NW 5.8 mph - N/A   Overcast
1:53 PM 55.9 °F 48.9 °F 77% 29.98 in 10.0 mi West 3.5 mph - N/A   Overcast
2:53 PM 59.0 °F 48.0 °F 67% 29.97 in 10.0 mi Calm Calm - N/A   Mostly Cloudy
3:03 PM 60.8 °F 50.0 °F 68% 29.98 in 10.0 mi Variable 4.6 mph - N/A   Partly Cloudy
3:18 PM 60.8 °F 50.0 °F 68% 29.97 in 10.0 mi North 4.6 mph - N/A   Mostly Cloudy
3:25 PM 60.8 °F 48.2 °F 63% 29.97 in 10.0 mi Calm Calm - N/A   Partly Cloudy
3:53 PM 61.0 °F 50.0 °F 67% 29.95 in 10.0 mi Calm Calm - N/A   Partly Cloudy
4:53 PM 64.0 °F 50.0 °F 60% 29.94 in 10.0 mi Calm Calm - N/A   Clear
5:53 PM 64.9 °F 48.9 °F 56% 29.92 in 10.0 mi Calm Calm - N/A   Clear
6:53 PM 64.0 °F 48.9 °F 58% 29.92 in 10.0 mi SSE 5.8 mph - N/A   Clear
7:53 PM 60.1 °F 48.9 °F 67% 29.92 in 10.0 mi SE 4.6 mph - N/A   Clear
8:53 PM 57.0 °F 48.9 °F 74% 29.93 in 10.0 mi SSE 3.5 mph - N/A   Clear
9:53 PM 55.0 °F 48.0 °F 77% 29.94 in 10.0 mi South 5.8 mph - N/A   Clear
10:53 PM 54.0 °F 48.9 °F 83% 29.95 in 10.0 mi South 5.8 mph - N/A   Clear
11:53 PM 53.1 °F 48.0 °F 83% 29.94 in 10.0 mi South 3.5 mph - N/A   Clear